Weather Roundup
Issued by NWS Corpus Christi, TX

Home | Current Version | Previous Version | Text Only | Print | Product List | Glossary On
Versions: 1 2 3 4 5 6 7 8 9 10 11 12 13 14 15 16 17 18 19 20 21 22 23 24 25 26 27 28 29 30 31 32 33 34 35 36 37 38 39 40 41 42 43 44 45 46 47 48 49 50
000
ASUS44 KCRP 050010
HRRCRP

SOUTH TEXAS REGIONAL WEATHER ROUNDUP
NATIONAL WEATHER SERVICE CORPUS CHRISTI TX
700 PM CDT TUE AUG 04 2015


TXZ229>244-050100-
...CORPUS CHRISTI AREA OBSERVATIONS...

CITY           SKY/WX    TMP DP  RH WIND       PRES   REMARKS
CORPUS CHRISTI MOSUNNY   87  77  72 SE22      29.90F HX  99
NAS CORPUS CHR MOSUNNY   86  78  77 SE15      29.91S HX  98
ROCKPORT       PTSUNNY   88  78  72 SE17      29.91S HX 101
KINGSVILLE NAS MOSUNNY   90  80  72 SE20G25   29.89F HX 107
ALICE          SUNNY     90  76  63 SE18G24   29.89R HX 101
FALFURRIAS     SUNNY     92  76  58 E14G23    29.87R HX 104
$$

...VICTORIA AREA OBSERVATIONS...

CITY           SKY/WX    TMP DP  RH WIND       PRES   REMARKS
VICTORIA       SUNNY     91  72  53 S16       29.91S HX  98
BEEVILLE       FAIR      91  76  62 S16       29.90S HX 102
PLEASANTON     SUNNY     97  62  30 E7G17     29.88S HX  98
SAN ANTONIO    MOSUNNY   96  65  35 SE13      29.89F HX  98
$$

...LAREDO AREA OBSERVATIONS...

CITY           SKY/WX    TMP DP  RH WIND       PRES   REMARKS
LAREDO         MOSUNNY  103  59  23 E14       29.84F HX 103
COTULLA        PTSUNNY  101  63  28 SE17      29.84S HX 103
DEL RIO        SUNNY    100  61  27 SE15      29.82F HX 101
MCALLEN        SUNNY     96  73  47 SE23      29.86S HX 105
HEBBRONVILLE     N/A     98  68  38 E20G25    29.88R HX 102
$$

...OTHER TEXAS OBSERVATIONS...

CITY           SKY/WX    TMP DP  RH WIND       PRES   REMARKS
BROWNSVILLE    MOSUNNY  N/A N/A N/A SE17G26   29.90F
HOUSTON        PTSUNNY   89  75  63 S3        29.91F HX  99
COL. STATION   SUNNY     93  70  46 SE9       29.89F HX  99
AUSTIN         MOSUNNY   95  65  37 S12       29.88S HX  97
WACO           SUNNY     96  66  37 S12       29.87F HX  99
FORT WORTH     PTSUNNY   96  63  33 S12       29.86F HX  97
WICHITA FALLS  MOSUNNY   92  72  51 SE10      29.86F HX  99
LUBBOCK        MOSUNNY   91  68  46 SE16      29.96F HX  95
EL PASO        MOSUNNY   98  43  15 VRB3      29.99F HX  94
$$

...MARINE OBSERVATIONS...

STATION/POSITION TIME  SKY/WX   TEMP    WIND        PRES    VSBY  WAVE   SWELL
                                AIR SEA DIR/SP/G                  HT/PER HT/PER
                 (UTC)          (F)     (DEG/KT/KT) (MB)    (MI)  (FT/S) (FT/S)
PORT ARANSAS     0000            85 88  120/ 17/ 19 1013.7F
BUOY 90 E PORT A 2350            86 87  160/ 10/ 12 1013.9F         2/ 5   2/ 5
BUOY 45 SE BAFFI 2350            85 85  160/ 12/ 14 1012.9F         2/ 4
BUOY 200 E PT IS 2350            87 86  150/ 12/ 14 1014.7F         2/ 5   2/ 8
BUOY 15 E GALVES 2350            87 89  180/ 12/ 14 1013.4F         2/ 5
$$


USA.gov is the U.S. government's official web portal to all federal, state and local government web resources and services.